Weather in Maltsevo

Russia / Oryol Oblast     52°33′51″N   37°32′14″E
temp.,
°C
wind,
m/s
gust,
m/s
humid.,
%
clouds,
%
prec.,
mm/h
press.,
hPa
HPBL,
m
14 august, sun
sun1400:00+22e2258100 0.0 101929
03:00+21e2461100 0.0 101990
06:00+21ne3665100 0.1 1019123
09:00+21ene4673100 0.4 1019292
12:00+23ene5864100 0.1 1019445
15:00+25e585674 0.1 1018691
18:00+25ene58518 0.0 1017637
21:00+20ene4115813 0.0 1018218
15 august, mon
mon1500:00+19ne4116328 0.0 1017214
03:00+18ne49648 0.0 1016160
06:00+18e4106575 0.0 1017211
09:00+24e684823 0.0 1016420
12:00+29e783430 0.0 10161478
15:00+31e783091 0.0 10151854
18:00+29e6103898 0.0 1015632
21:00+25ene71444100 0.0 1015438
16 august, tue
tue1600:00+24e71547100 0.0 1015479
03:00+21e6155383 0.2 1016435
06:00+21e61446100 0.1 1017444
09:00+23e71539100 0.1 1017519
12:00+28ese8928100 0.0 10171069
15:00+30e8928100 0.0 10161302
18:00+28e5834100 0.0 1016479
21:00+24se1241100 0.0 101653
17 august, wed
wed1700:00+23e4844100 0.0 1015179
03:00+22ene4105196 0.0 1015222
06:00+22ene6134999 0.0 1015321
09:00+24ene6124197 0.1 1014494
12:00+27e71036100 0.0 1014922
15:00+30e8102892 0.0 10131701
18:00+28ene8143399 0.0 1012787
21:00+26ene8173240 0.0 1012740
18 august, thu
thu1800:00+24ene8173694 0.0 1013622
03:00+23e71538100 0.0 1012386
06:00+21ene6154795 0.1 1012376
09:00+23ene71342100 0.1 1012543
12:00+28e81031100 0.0 1011921
15:00+28ene71135100 0.0 1011734
18:00+26ene6104373 0.0 1012684
21:00+25ne61439100 0.0 1010505